CW4438 Weather Reports


time (UTC)temp
C
wind
direction
speed
KPH
gust
KPH
rain 1hr
cm
rain 24hr
cm
rain mn
cm
humidity
%
barometer
mb
20260505152930 16 57 1.6 4.8 0.00 3.73 3.73 96 1005.1
20260505151930 16 130 1.6 9.7 0.00 3.73 3.73 96 1005.1
20260505151428 16 77 1.6 9.7 0.00 3.73 3.73 96 1005.1
20260505150928 16 88 3.2 8.0 0.00 3.73 3.73 96 1005.1
20260505150429 16 70 3.2 8.0 0.00 3.73 3.73 96 1005.1
20260505140429 16 48 0.0 1.6 0.00 3.73 3.73 96 1005.7
20260505124928 15 55 0.0 4.8 0.00 3.73 3.73 96 1005.3
20260505124429 15 55 1.6 8.0 0.00 3.73 3.73 96 1005.3
20260505123929 15 38 1.6 8.0 0.00 3.73 3.73 96 1005.2
20260505123429 15 108 1.6 8.0 0.00 3.73 3.73 96 1005.0
20260505122929 15 76 1.6 6.4 0.00 3.73 3.73 96 1005.0
20260505121930 15 70 1.6 4.8 0.00 3.73 3.73 96 1004.8
20260505121430 15 179 1.6 4.8 0.00 3.73 3.73 96 1004.9
20260505120931 15 136 0.0 4.8 0.00 3.73 3.73 96 1004.9
20260505120428 15 142 1.6 4.8 0.00 3.73 3.73 96 1004.8
20260505115418 15 156 1.6 4.8 0.00 3.73 3.73 96 1004.7
20260505114411 15 184 1.6 4.8 0.00 3.73 3.73 96 1004.7
20260505113908 15 96 1.6 8.0 0.00 3.73 3.73 95 1004.6
20260505113407 15 138 3.2 9.7 0.00 3.73 3.73 96 1004.6
20260505112905 15 117 1.6 9.7 0.00 3.73 3.73 95 1004.6
20260505112403 15 65 1.6 8.0 0.00 3.73 3.73 95 1004.6
20260505111903 15 146 1.6 8.0 0.00 3.73 3.73 95 1004.5
20260505111402 15 217 1.6 6.4 0.03 3.73 3.73 95 1004.5
20260505110901 15 171 1.6 4.8 0.03 3.73 3.73 95 1004.3
20260505110401 15 209 3.2 8.0 0.03 3.73 3.73 95 1004.5
20260505101901 15 118 1.6 8.0 0.05 3.73 3.71 95 1005.3
20260505101403 15 146 1.6 4.8 0.03 3.71 3.71 95 1005.4
20260505100902 15 106 1.6 3.2 0.05 3.71 3.71 95 1005.7
20260505100403 15 97 0.0 3.2 0.05 3.71 3.68 95 1005.7
20260505095902 15 89 1.6 3.2 0.03 3.68 3.68 95 1005.8
20260505094901 15 97 1.6 4.8 0.10 3.68 3.68 95 1005.7
20260505093901 15 94 0.0 3.2 0.56 3.68 3.68 95 1005.7
20260505092853 15 109 0.0 3.2 0.64 3.68 3.68 95 1005.8
20260505092346 15 71 0.0 3.2 0.69 3.68 3.68 95 1005.8
20260505091840 15 121 0.0 3.2 0.71 3.68 3.68 95 1005.8
20260505091330 15 85 0.0 3.2 0.74 3.68 3.68 95 1005.9
20260505090829 15 124 0.0 3.2 0.71 3.66 3.66 94 1005.9
20260505090329 15 124 0.0 1.6 0.76 3.66 3.66 94 1006.4
20260505085830 15 124 0.0 3.2 0.76 3.66 3.66 94 1006.1
20260505085329 15 124 1.6 3.2 0.76 3.63 3.63 94 1005.8
20260505084829 15 196 1.6 8.0 0.74 3.58 3.56 94 1006.2
20260505083829 15 31 1.6 4.8 0.41 3.12 3.12 94 1006.6
20260505083329 15 269 0.0 4.8 0.43 3.10 3.07 94 1005.9
20260505082829 15 267 1.6 4.8 1.17 3.05 3.05 93 1005.1
20260505081829 15 188 1.6 3.2 1.73 2.97 2.95 93 1005.2
20260505081329 15 208 1.6 3.2 1.91 2.95 2.95 93 1005.8
20260505080831 15 101 0.0 3.2 2.03 2.95 2.92 93 1005.2
20260505080321 15 338 1.6 3.2 2.46 2.90 2.90 93 1005.4
20260505075820 15 338 1.6 6.4 2.57 2.90 2.87 93 1005.5
20260505075313 15 78 3.2 6.4 2.54 2.87 2.87 92 1005.5
20260505074812 15 112 3.2 9.7 2.51 2.82 2.82 92 1006.0
20260505073812 15 61 4.8 20.9 2.62 2.72 2.72 92 1006.0
20260505072312 16 355 3.2 6.4 1.60 1.68 1.60 92 1006.5
20260505071813 16 27 3.2 6.4 1.14 1.22 1.12 91 1006.0
20260505071313 16 317 3.2 6.4 0.99 1.04 1.04 91 1005.2
20260505070812 16 0 1.6 6.4 0.86 0.91 0.91 91 1004.9
20260505070310 16 25 0.0 3.2 0.41 0.43 0.38 90 1006.0
20260505065808 16 37 0.0 3.2 0.33 0.33 0.33 90 1005.5
20260505064808 16 54 1.6 4.8 0.30 0.30 0.30 89 1005.4
20260505064301 16 79 1.6 4.8 0.23 0.23 0.20 88 1005.0
20260505063800 17 63 1.6 4.8 0.10 0.10 0.10 87 1005.7
20260505063302 17 299 1.6 3.2 0.10 0.10 0.10 85 1006.7
20260505062304 17 139 1.6 8.0 0.08 0.08 0.08 83 1004.9
20260505061801 17 217 3.2 9.7 0.08 0.08 0.08 83 1004.9
20260505061302 18 34 1.6 9.7 0.05 0.05 0.05 81 1005.2
20260505060301 18 99 1.6 8.0 0.00 0.00 0.00 77 1006.2
20260505055801 18 215 1.6 8.0 0.00 0.00 0.00 76 1006.1
20260505054300 18 171 1.6 6.4 0.00 0.00 0.00 73 1006.1
20260505053801 18 183 1.6 6.4 0.00 0.00 0.00 73 1006.3
20260505053300 18 171 1.6 6.4 0.00 0.00 0.00 73 1006.2
20260505052755 18 176 1.6 4.8 0.00 0.00 0.00 73 1006.2
20260505052248 18 215 3.2 6.4 0.00 0.00 0.00 73 1006.0
20260505051744 18 157 3.2 9.7 0.00 0.00 0.00 73 1005.9
20260505051244 18 184 3.2 9.7 0.00 0.00 0.00 73 1005.5
20260505050745 18 139 1.6 6.4 0.00 0.00 0.00 73 1005.5
20260505050245 18 156 1.6 8.0 0.00 0.00 0.00 73 1005.7
20260505041739 18 123 0.0 1.6 0.00 0.00 0.00 73 1006.2
20260505041235 18 130 0.0 3.2 0.00 0.00 0.00 73 1006.2
20260505040736 18 127 1.6 3.2 0.00 0.00 0.00 73 1006.2
20260505040235 18 160 1.6 3.2 0.00 0.00 0.00 73 1006.2
20260505035735 18 185 1.6 4.8 0.00 0.00 0.00 73 1006.2
20260505035237 18 188 3.2 6.4 0.00 0.00 0.00 73 1006.3
20260505034733 18 199 1.6 6.4 0.00 0.00 0.00 73 1006.4
20260505034233 18 187 1.6 8.0 0.00 0.00 0.00 73 1006.5
20260505033733 18 204 3.2 8.0 0.00 0.00 0.00 73 1006.6
20260505033233 18 206 1.6 6.4 0.00 0.00 0.00 73 1006.5
20260505032733 18 215 1.6 4.8 0.00 0.00 0.00 73 1006.6
20260505032234 18 215 1.6 4.8 0.00 0.00 0.00 73 1006.5
20260505031733 18 146 1.6 4.8 0.00 0.00 0.00 73 1006.6
20260505031230 18 194 1.6 4.8 0.00 0.00 0.00 73 1006.6
20260505030729 18 194 1.6 4.8 0.00 0.00 0.00 73 1006.5
20260505030227 18 178 0.0 3.2 0.00 0.00 0.00 73 1006.7
20260505025719 18 184 1.6 4.8 0.00 0.00 0.00 73 1006.6
20260505025219 18 142 1.6 4.8 0.00 0.00 0.00 73 1006.7
20260505024719 18 207 1.6 4.8 0.00 0.00 0.00 73 1006.6
20260505024220 18 134 0.0 3.2 0.00 0.00 0.00 72 1006.6
20260505023719 18 173 0.0 1.6 0.00 0.00 0.00 71 1006.6
20260505023219 19 156 0.0 1.6 0.00 0.00 0.00 71 1006.5
20260505022719 19 156 0.0 1.6 0.00 0.00 0.00 71 1006.5
20260505022219 19 144 0.0 1.6 0.00 0.00 0.00 70 1006.5
20260505021719 19 144 0.0 1.6 0.00 0.00 0.00 70 1006.5
20260505021217 20 144 0.0 1.6 0.00 0.00 0.00 68 1006.3
20260505020215 20 144 0.0 1.6 0.00 0.00 0.00 67 1006.2
20260505015715 20 145 0.0 3.2 0.00 0.00 0.00 67 1006.1
20260505015215 20 144 0.0 3.2 0.00 0.00 0.00 67 1006.0
20260505014715 20 179 0.0 1.6 0.00 0.00 0.00 65 1006.0
20260505014209 20 173 0.0 3.2 0.00 0.00 0.00 65 1005.9
20260505013707 20 207 1.6 3.2 0.00 0.00 0.00 65 1006.0
20260505013207 21 195 0.0 3.2 0.00 0.00 0.00 64 1005.9
20260505012705 21 196 0.0 3.2 0.00 0.00 0.00 63 1005.9
20260505012203 21 196 0.0 1.6 0.00 0.00 0.00 63 1005.7
20260505011703 21 197 0.0 3.2 0.00 0.00 0.00 63 1005.8
20260505011203 21 197 1.6 4.8 0.00 0.00 0.00 62 1005.7
20260505010702 21 197 3.2 8.0 0.00 0.00 0.00 62 1005.4
20260505010203 21 198 3.2 8.0 0.00 0.00 0.00 61 1005.3
20260505005702 21 219 4.8 9.7 0.00 0.00 0.00 61 1005.3
20260505005203 21 192 4.8 9.7 0.00 0.00 0.00 60 1005.3
20260505004702 22 191 4.8 11.3 0.00 0.00 0.00 60 1005.3
20260505004203 22 214 4.8 11.3 0.00 0.00 0.00 61 1005.3
20260505003203 22 227 3.2 8.0 0.00 0.00 0.00 60 1005.3
20260505002702 22 182 4.8 9.7 0.00 0.00 0.00 60 1005.4
20260505002203 22 86 4.8 17.7 0.00 0.00 0.00 59 1005.4
20260505001703 22 140 4.8 17.7 0.00 0.00 0.00 59 1005.4
20260505001203 22 117 4.8 11.3 0.00 0.00 0.00 58 1005.4
20260505000703 23 119 6.4 12.9 0.00 0.00 0.00 57 1005.4
20260505000204 23 120 6.4 22.5 0.00 0.00 0.00 56 1005.4
20260504235703 23 107 6.4 22.5 0.00 0.00 0.00 56 1005.2
20260504234703 23 150 4.8 14.5 0.00 0.00 0.00 57 1005.3
20260504234202 23 130 4.8 16.1 0.00 0.00 0.00 56 1005.3
20260504233703 23 105 4.8 19.3 0.00 0.00 0.00 57 1005.2
20260504233202 23 102 4.8 19.3 0.00 0.00 0.00 55 1005.2
20260504232703 23 66 6.4 17.7 0.00 0.00 0.00 55 1005.2
20260504231702 24 116 6.4 16.1 0.00 0.00 0.00 53 1005.2
20260504230702 24 126 4.8 20.9 0.00 0.00 0.00 56 1005.2
20260504225702 24 115 6.4 19.3 0.00 0.00 0.00 54 1005.1
20260504225203 24 117 6.4 20.9 0.00 0.00 0.00 55 1005.2
20260504224702 24 165 8.0 20.9 0.00 0.00 0.00 53 1005.2
20260504224202 25 113 8.0 19.3 0.00 0.00 0.00 51 1005.1
20260504223704 25 159 6.4 19.3 0.00 0.00 0.00 53 1005.2
20260504223202 25 182 6.4 17.7 0.00 0.00 0.00 53 1005.2
20260504222703 25 136 4.8 12.9 0.00 0.00 0.00 52 1005.1
20260504222201 25 175 4.8 14.5 0.00 0.00 0.00 55 1005.3
20260504221701 25 123 4.8 14.5 0.00 0.00 0.00 52 1005.3
20260504221201 25 138 6.4 12.9 0.00 0.00 0.00 51 1005.3
20260504220701 25 96 6.4 12.9 0.00 0.00 0.00 53 1005.3
20260504220201 25 92 6.4 16.1 0.00 0.00 0.00 50 1005.3
20260504215702 25 139 6.4 16.1 0.00 0.00 0.00 49 1005.5
20260504215155 26 136 8.0 20.9 0.00 0.00 0.00 52 1005.7
20260504214645 26 128 8.0 20.9 0.00 0.00 0.00 51 1005.8
20260504214139 26 65 6.4 17.7 0.00 0.00 0.00 50 1005.7
20260504213630 26 92 4.8 12.9 0.00 0.00 0.00 50 1005.7
20260504213129 26 156 4.8 12.9 0.00 0.00 0.00 54 1005.8
20260504211629 26 150 6.4 24.1 0.00 0.00 0.00 52 1006.0
20260504211129 26 218 8.0 24.1 0.00 0.00 0.00 51 1006.1
20260504210629 26 149 8.0 20.9 0.00 0.00 0.00 50 1006.2
20260504210129 26 184 6.4 20.9 0.00 0.00 0.00 49 1006.4
20260504205629 26 131 6.4 14.5 0.00 0.00 0.00 50 1006.3
20260504205129 26 161 6.4 16.1 0.00 0.00 0.00 53 1006.3
20260504204129 26 180 8.0 24.1 0.00 0.00 0.00 52 1006.5
20260504203629 26 195 8.0 19.3 0.00 0.00 0.00 48 1006.5
20260504202629 26 167 9.7 25.7 0.00 0.00 0.00 50 1006.6
20260504202130 26 161 9.7 22.5 0.00 0.00 0.00 49 1006.7
20260504201629 26 175 9.7 22.5 0.00 0.00 0.00 51 1006.7
20260504200629 26 149 11.3 25.7 0.00 0.00 0.00 49 1006.8
20260504200129 26 44 11.3 25.7 0.00 0.00 0.00 49 1006.8
20260504195629 26 64 9.7 25.7 0.00 0.00 0.00 52 1006.7
20260504195129 26 104 9.7 25.7 0.00 0.00 0.00 51 1006.9
20260504194629 26 169 8.0 20.9 0.00 0.00 0.00 49 1007.0
20260504193628 26 169 8.0 22.5 0.00 0.00 0.00 54 1007.0
20260504193129 26 129 9.7 24.1 0.00 0.00 0.00 53 1007.3
20260504192631 26 219 9.7 24.1 0.00 0.00 0.00 50 1007.3
20260504192131 26 150 6.4 25.7 0.00 0.00 0.00 52 1007.4
20260504191631 26 106 8.0 25.7 0.00 0.00 0.00 55 1007.3
20260504191130 26 70 9.7 29.0 0.00 0.00 0.00 50 1007.3
20260504185631 26 242 8.0 20.9 0.00 0.00 0.00 53 1007.4
20260504185130 26 134 8.0 27.4 0.00 0.00 0.00 53 1007.5
20260504184631 25 121 8.0 27.4 0.00 0.00 0.00 55 1007.5
20260504183137 25 152 8.0 25.7 0.00 0.00 0.00 53 1007.6
20260504182639 25 188 8.0 16.1 0.00 0.00 0.00 54 1007.7
20260504182133 25 190 8.0 16.1 0.00 0.00 0.00 54 1007.7
20260504181630 25 171 8.0 25.7 0.00 0.00 0.00 58 1007.9
20260504181130 25 240 9.7 25.7 0.00 0.00 0.00 53 1007.9
20260504180633 25 245 8.0 22.5 0.00 0.00 0.00 55 1008.0
20260504180131 25 179 6.4 19.3 0.00 0.00 0.00 55 1008.1
20260504175630 25 151 8.0 22.5 0.00 0.00 0.00 59 1008.1
20260504175129 25 217 8.0 22.5 0.00 0.00 0.00 53 1008.2
20260504174629 25 192 8.0 17.7 0.00 0.00 0.00 54 1008.2
20260504174129 24 269 8.0 17.7 0.00 0.00 0.00 56 1008.2
20260504173130 24 157 9.7 27.4 0.00 0.00 0.00 55 1008.5
20260504172629 24 139 8.0 16.1 0.00 0.00 0.00 55 1008.6
20260504172129 24 171 8.0 20.9 0.00 0.00 0.00 55 1008.6
20260504171629 24 96 9.7 25.7 0.00 0.00 0.00 54 1008.6
20260504171129 24 196 9.7 25.7 0.00 0.00 0.00 51 1008.6
20260504170629 24 159 8.0 24.1 0.00 0.00 0.00 53 1008.5
20260504170129 24 5 6.4 24.1 0.00 0.00 0.00 56 1008.7
20260504160129 23 165 6.4 16.1 0.00 0.00 0.00 54 1009.1